TimeMDT,TemperatureF,Dew PointF,Humidity,Sea Level PressureIn,VisibilityMPH,Wind Direction,Wind SpeedMPH,Gust SpeedMPH,PrecipitationIn,Events,Conditions,WindDirDegrees,DateUTC
12:55 AM,25.0,19.0,78,30.28,10.0,North,3.5,-,N/A,,Scattered Clouds,360,2013-04-18 06:55:00
1:55 AM,23.0,17.1,78,30.28,10.0,Calm,Calm,-,N/A,,Clear,0,2013-04-18 07:55:00
2:55 AM,23.0,18.0,81,30.26,10.0,Calm,Calm,-,N/A,,Clear,0,2013-04-18 08:55:00
3:55 AM,21.9,18.0,85,30.26,10.0,North,3.5,-,N/A,,Clear,10,2013-04-18 09:55:00
4:55 AM,21.9,18.0,85,30.26,10.0,Calm,Calm,-,N/A,,Clear,0,2013-04-18 10:55:00
5:55 AM,21.0,17.1,85,30.28,10.0,Calm,Calm,-,N/A,,Clear,0,2013-04-18 11:55:00
6:55 AM,21.0,17.1,85,30.28,10.0,Calm,Calm,-,N/A,,Clear,0,2013-04-18 12:55:00
7:55 AM,27.0,21.0,78,30.29,10.0,Calm,Calm,-,N/A,,Clear,0,2013-04-18 13:55:00
8:55 AM,36.0,25.0,64,30.29,10.0,Calm,Calm,-,N/A,,Clear,0,2013-04-18 14:55:00
9:55 AM,43.0,23.0,45,30.29,10.0,SSE,6.9,-,N/A,,Clear,150,2013-04-18 15:55:00
10:55 AM,45.0,21.9,40,30.28,10.0,Variable,4.6,-,N/A,,Partly Cloudy,0,2013-04-18 16:55:00
11:55 AM,46.9,21.9,37,30.27,10.0,SE,8.1,-,N/A,,Partly Cloudy,140,2013-04-18 17:55:00
12:55 PM,48.9,23.0,36,30.26,10.0,SSE,11.5,-,N/A,,Clear,160,2013-04-18 18:55:00
1:55 PM,52.0,24.1,34,30.25,10.0,SSE,12.7,19.6,N/A,,Clear,160,2013-04-18 19:55:00
2:55 PM,53.1,25.0,34,30.24,10.0,SSE,18.4,-,N/A,,Scattered Clouds,150,2013-04-18 20:55:00
3:55 PM,51.1,24.1,35,30.23,10.0,SSE,17.3,-,N/A,,Mostly Cloudy,160,2013-04-18 21:55:00
4:55 PM,52.0,25.0,35,30.22,10.0,SSE,13.8,-,N/A,,Overcast,150,2013-04-18 22:55:00
5:55 PM,52.0,28.0,40,30.21,10.0,SSE,11.5,-,N/A,,Overcast,160,2013-04-18 23:55:00
6:55 PM,52.0,25.0,35,30.20,10.0,WSW,11.5,-,N/A,,Overcast,240,2013-04-19 00:55:00
7:55 PM,50.0,25.0,38,30.20,10.0,West,13.8,-,N/A,,Overcast,260,2013-04-19 01:55:00
8:55 PM,48.0,27.0,44,30.19,10.0,SW,8.1,-,N/A,,Overcast,230,2013-04-19 02:55:00
9:55 PM,46.0,28.0,50,30.20,10.0,SSE,8.1,-,N/A,,Overcast,160,2013-04-19 03:55:00
10:55 PM,46.0,27.0,47,30.18,10.0,South,10.4,-,N/A,,Overcast,190,2013-04-19 04:55:00
11:55 PM,43.0,30.0,60,30.17,10.0,SSE,11.5,-,N/A,,Overcast,160,2013-04-19 05:55:00